Location: ???????
(55.4362°N, 38.1183°E)
Time: 19:08:17
(UTC+00:00)

USA 267 - Pass Details

Date: 01 November 2021
Orbit: 1101 x 1107 km, 123.0° (Epoch: 27 November)

Event Time Altitude Azimuth Distance (km) Brightness Sun altitude
Exits shadow 17:24:16 18° 192° (SSW) 2,386 4.9 -30.6°
Maximum altitude 17:27:19 26° 230° (SW) 2,036 4.9 -31.0°
Drops below altitude 10° 17:32:35 10° 284° (WNW) 2,964 6.4 -31.7°
Sets 17:35:36 0° 297° (WNW) 3,925 7.3 -32.1°
